2019-052C (44488 NORAD) Tracking and Keplerian Element Data

This shows tracking and keplerian element data for the satellite.

Feedback or suggestion? Click here.




ElementValue
Catalog44488
Name2019-052C
Epoch Orbit445
Epoch Day258.7877583
Epoch Year2019
RAAN331.8354
Inclination97.6039
Eccentricity0.0024316
Argument of Perigee151.8305
Mean Anonmoly356.2577
Mean Motion15.07290973
Decay Rate-2.6E-07
L11 44488U 19052C 19258.78775830 -.00000026 00000-0 25115-5 0 9993
L22 44488 97.6039 331.8354 0024316 151.8305 356.2577 15.07290973 4451

Live tracking and technical data element details for 2019-052C (NORAD 44488). 2019-052C can be tracked NOW for your location showing map with azimuth and elevation plus other details from your city location.

Track the satellite on the map from your city or location and see movement details for azimuth, elevation, latitude, longitude, range, height, and movement on the map or in text.







IsCatalogInMostPopularTable: catalog: 44488, numindb: 8
Update: records affected: 1



GetName: 44488 2019-052C

Hit Count: updated at: Thu, 19 Sep 2019 17:35:32 GMT